Weather History for EICK - April, 2014

Change the Weather History Date:

Saturday, April 12, 2014

  Actual Average Record
Temperature  
Mean Temperature 48 °F -  
Max Temperature 55 °F 55 °F 59 °F (2007)
Min Temperature 42 °F 42 °F 32 °F (1998)
Degree Days  
Heating Degree Days 16    
Moisture  
Dew Point 42 °F    
Average Humidity 79    
Maximum Humidity 94    
Minimum Humidity 45    
Precipitation  
Precipitation 0.04 in 0.10 in - ()
Sea Level Pressure  
Sea Level Pressure 30.11 in    
Wind  
Wind Speed 11 mph ()    
Max Wind Speed 20 mph    
Max Gust Speed -    
Visibility 7.9 miles    
Events Rain    
Averages and records for this station are not official NWS values.
T = Trace of Precipitation, MM = Missing Value Source: Averaged Metar Reports

Daily Weather History Graph

Daily Weather History Graph

Search for Another Location

Airport or City:

Trip Planner

Search our weather history database for the weather conditions in past years. The results will help you decide how hot, cold, wet, or windy it might be!

Date:

Astronomy

Apr. 12, 2014 Rise Set
Actual Time 6:44 AM IST 8:26 PM IST
Civil Twilight 6:09 AM IST 9:01 PM IST
Nautical Twilight 5:25 AM IST 9:45 PM IST
Astronomical Twilight 4:37 AM IST 10:34 PM IST
Moon 5:34 PM IST (4/12) 5:24 AM IST (4/12)
Length of Visible Light 14h 52m
Length of Day
13h 41m
Waxing Gibbous, 91% of the Moon is Illuminated
Apr 12
Waxing Gibbous
Apr 15
Full
Apr 22
Last Quarter
Apr 29
New
May 7
First Quarter

Hourly Weather History & Observations

Time (IST) Temp. Windchill Dew Point Humidity Pressure Visibility Wind Dir Wind Speed Gust Speed Precip Events Conditions
12:00 AM 44 °F - 40 °F 79% 30.18 in 25 mi SW 8.9 mph - -   Mostly Cloudy
12:00 AM 44.6 °F 39.7 °F 39.2 °F 81% 30.15 in 6.2 mi SW 9.2 mph - N/A   Mostly Cloudy
12:30 AM 42.8 °F 38.0 °F 39.2 °F 87% 30.15 in 6.2 mi SW 8.1 mph - N/A   Mostly Cloudy
1:00 AM 42 °F - 39 °F 83% 30.18 in 22 mi WSW 8.9 mph - -   Partly Cloudy
1:00 AM 42.8 °F 38.0 °F 39.2 °F 87% 30.15 in 6.2 mi WSW 8.1 mph - N/A   Scattered Clouds
1:30 AM 42.8 °F 38.0 °F 39.2 °F 87% 30.12 in 6.2 mi SW 8.1 mph - N/A   Mostly Cloudy
2:00 AM 44 °F - 39 °F 78% 30.16 in 22 mi WSW 11.2 mph - -   Mostly Cloudy
2:00 AM 42.8 °F 36.6 °F 39.2 °F 87% 30.12 in 6.2 mi WSW 11.5 mph - N/A   Mostly Cloudy
2:30 AM 44.6 °F 39.7 °F 39.2 °F 81% 30.12 in 6.2 mi WSW 9.2 mph - N/A   Mostly Cloudy
3:00 AM 44 °F - 40 °F 80% 30.13 in 22 mi WSW 11.2 mph - -   Mostly Cloudy
3:00 AM 44.6 °F 38.8 °F 39.2 °F 81% 30.09 in 6.2 mi WSW 11.5 mph - N/A   Mostly Cloudy
3:30 AM 42.8 °F 37.0 °F 39.2 °F 87% 30.09 in 6.2 mi SW 10.4 mph - N/A   Mostly Cloudy
4:00 AM 44 °F - 41 °F 84% 30.12 in 19 mi WSW 8.9 mph - -   Mostly Cloudy
4:00 AM 44.6 °F 39.7 °F 41.0 °F 87% 30.09 in 6.2 mi WSW 9.2 mph - N/A   Mostly Cloudy
4:30 AM 44.6 °F 38.8 °F 41.0 °F 87% 30.09 in 6.2 mi WSW 11.5 mph - N/A   Mostly Cloudy
5:00 AM 45 °F - 42 °F 85% 30.09 in 19 mi WSW 8.9 mph - -   Mostly Cloudy
5:00 AM 44.6 °F 39.7 °F 42.8 °F 93% 30.06 in 6.2 mi WSW 9.2 mph - N/A   Mostly Cloudy
5:30 AM 46.4 °F 41.5 °F 42.8 °F 87% 30.06 in 6.2 mi WSW 10.4 mph - N/A   Mostly Cloudy
6:00 AM 46 °F - 42 °F 80% 30.09 in 19 mi WSW 11.2 mph - -   Scattered Clouds
6:00 AM 46.4 °F 41.5 °F 42.8 °F 87% 30.06 in 6.2 mi WSW 10.4 mph - N/A   Mostly Cloudy
6:30 AM 46.4 °F 41.9 °F 42.8 °F 87% 30.06 in 6.2 mi SW 9.2 mph - N/A   Mostly Cloudy
7:00 AM 46 °F - 42 °F 82% 30.08 in 22 mi WSW 13.4 mph - -   Partly Cloudy
7:00 AM 46.4 °F 40.7 °F 42.8 °F 87% 30.06 in 6.2 mi WSW 12.7 mph - N/A   Mostly Cloudy
7:30 AM 46.4 °F 41.1 °F 42.8 °F 87% 30.06 in 6.2 mi WSW 11.5 mph - N/A   Mostly Cloudy
8:00 AM 46 °F - 44 °F 89% 30.09 in 25 mi SW 11.2 mph - -   Mostly Cloudy
8:00 AM 46.4 °F 41.1 °F 44.6 °F 93% 30.06 in 6.2 mi SW 11.5 mph - N/A   Mostly Cloudy
8:30 AM 46.4 °F 40.7 °F 44.6 °F 93% 30.06 in 6.2 mi SW 12.7 mph - N/A   Mostly Cloudy
9:00 AM 48 °F - 45 °F 85% 30.09 in 19 mi SW 11.2 mph - -   Mostly Cloudy
9:00 AM 48.2 °F - 44.6 °F 87% 30.06 in 6.2 mi SW 11.5 mph - N/A   Mostly Cloudy
9:30 AM 50.0 °F - 46.4 °F 87% 30.06 in 6.2 mi WSW 15.0 mph - N/A   Mostly Cloudy
10:00 AM 49 °F - 45 °F 81% 30.09 in 19 mi WSW 15.7 mph - -   Mostly Cloudy
10:00 AM 48.2 °F - 44.6 °F 87% 30.06 in 6.2 mi WSW 15.0 mph - N/A   Mostly Cloudy
10:30 AM 48.2 °F - 46.4 °F 93% 30.06 in 6.2 mi WSW 12.7 mph - N/A   Mostly Cloudy
11:00 AM 49 °F - 46 °F 86% 30.10 in 16 mi WSW 11.2 mph - -   Mostly Cloudy
11:00 AM 48.2 °F - 46.4 °F 93% 30.06 in 6.2 mi WSW 11.5 mph - N/A   Mostly Cloudy
11:30 AM 50.0 °F - 48.2 °F 94% 30.06 in 6.2 mi SW 15.0 mph - N/A   Mostly Cloudy
12:00 PM 52 °F - 49 °F 85% 30.09 in 17 mi WSW 15.7 mph - -   Mostly Cloudy
12:00 PM 51.8 °F - 48.2 °F 88% 30.06 in 6.2 mi WSW 15.0 mph - N/A   Mostly Cloudy
12:30 PM 53.6 °F - 50.0 °F 88% 30.06 in 6.2 mi WSW 13.8 mph - N/A   Mostly Cloudy
1:00 PM 53 °F - 49 °F 81% 30.08 in 16 mi WSW 13.4 mph - - Rain Light Rain Showers
1:00 PM 51.8 °F - 48.2 °F 88% 30.06 in 6.2 mi WSW 13.8 mph - N/A Rain Light Rain Showers
1:30 PM 53.6 °F - 50.0 °F 88% 30.06 in 6.2 mi WSW 15.0 mph - N/A Rain Light Rain Showers
2:00 PM 54 °F - 51 °F 86% 30.09 in 4 mi WSW 13.4 mph - - Rain Light Rain Showers
2:00 PM 53.6 °F - 51.8 °F 94% 30.06 in 4.3 mi WSW 13.8 mph - N/A Rain Light Rain Showers
2:30 PM 51.8 °F - 50.0 °F 94% 30.09 in 3.7 mi NW 15.0 mph - N/A Rain Light Rain Showers
3:00 PM 52 °F - 49 °F 84% 30.11 in 19 mi NW 13.4 mph - - Rain Light Rain Showers
3:00 PM 51.8 °F - 48.2 °F 88% 30.09 in 6.2 mi NW 12.7 mph - N/A   Mostly Cloudy
3:30 PM 51.8 °F - 46.4 °F 82% 30.09 in 6.2 mi NW 15.0 mph - N/A   Mostly Cloudy
4:00 PM 54 °F - 46 °F 65% 30.11 in 25 mi WNW 20.1 mph - -   Partly Cloudy
4:00 PM 53.6 °F - 46.4 °F 77% 30.09 in 6.2 mi WNW 19.6 mph - N/A   Mostly Cloudy
4:30 PM 53.6 °F - 42.8 °F 67% 30.09 in 6.2 mi NW 18.4 mph - N/A   Scattered Clouds
5:00 PM 54 °F - 41 °F 52% 30.12 in 28 mi NW 17.9 mph - -   Partly Cloudy
5:00 PM 53.6 °F - 41.0 °F 62% 30.09 in 6.2 mi NW 17.3 mph - N/A   Scattered Clouds
5:30 PM 51.8 °F - 37.4 °F 58% 30.12 in 6.2 mi NW 18.4 mph - N/A   Scattered Clouds
6:00 PM 52 °F - 37 °F 45% 30.14 in 28 mi NNW 17.9 mph - -   Partly Cloudy
6:00 PM 51.8 °F - 37.4 °F 58% 30.12 in 6.2 mi NNW 17.3 mph - N/A   Scattered Clouds
6:30 PM 50.0 °F - 37.4 °F 62% 30.12 in 6.2 mi NW 16.1 mph - N/A   Scattered Clouds
7:00 PM 49 °F - 36 °F 51% 30.16 in 28 mi NW 17.9 mph - -   Partly Cloudy
7:00 PM 50.0 °F - 35.6 °F 58% 30.12 in 6.2 mi NW 17.3 mph - N/A   Scattered Clouds
7:30 PM 48.2 °F - 35.6 °F 62% 30.15 in 6.2 mi NNW 15.0 mph - N/A   Scattered Clouds
8:00 PM 47 °F - 36 °F 55% 30.18 in 28 mi NNW 15.7 mph - -   Partly Cloudy
8:00 PM 48.2 °F - 35.6 °F 62% 30.15 in 6.2 mi NNW 16.1 mph - N/A   Scattered Clouds
8:30 PM 46.4 °F 39.8 °F 35.6 °F 66% 30.18 in 6.2 mi NW 16.1 mph - N/A   Mostly Cloudy
9:00 PM 46 °F - 36 °F 57% 30.20 in 25 mi NW 13.4 mph - -   Mostly Cloudy
9:00 PM 46.4 °F 40.4 °F 35.6 °F 66% 30.18 in 6.2 mi NW 13.8 mph - N/A   Mostly Cloudy
9:30 PM 46.4 °F 39.8 °F 37.4 °F 71% 30.18 in 6.2 mi NW 16.1 mph - N/A   Scattered Clouds
10:00 PM 46 °F - 37 °F 60% 30.23 in 25 mi NW 15.7 mph - -   Mostly Cloudy
10:00 PM 46.4 °F 40.1 °F 37.4 °F 71% 30.21 in 6.2 mi NW 15.0 mph - N/A   Mostly Cloudy
10:30 PM 46.4 °F 40.7 °F 37.4 °F 71% 30.21 in 6.2 mi NW 12.7 mph - N/A   Mostly Cloudy
11:00 PM 45 °F - 37 °F 66% 30.24 in 25 mi NW 8.9 mph - -   Mostly Cloudy
11:00 PM 44.6 °F 39.7 °F 37.4 °F 76% 30.21 in 6.2 mi NW 9.2 mph - N/A   Mostly Cloudy
11:30 PM 46.4 °F 41.5 °F 37.4 °F 71% 30.21 in 6.2 mi NW 10.4 mph - N/A   Mostly Cloudy